This is the latest recevied weather packets stored in our database for station/object S50ME-11. If no packets are shown the sender has not sent any weather packets the latest 10 day(s).
| Time | Temp. | Humidity | Pressure | Rain* | Wind** | Luminosity | Snow |
|---|---|---|---|---|---|---|---|
| 1777698051 | 13.89° C | 41% | 1026.6 hPa | - | - | - | - |
| 1777697153 | 12.78° C | 41% | 1026.8 hPa | - | - | - | - |
| 1777697150 | 12.78° C | 41% | 1026.8 hPa | - | - | - | - |
| 1777696253 | 11.67° C | 41% | 1026.7 hPa | - | - | - | - |
| 1777696250 | 11.67° C | 41% | 1026.7 hPa | - | - | - | - |
| 1777695351 | 11.67° C | 41% | 1026.8 hPa | - | - | - | - |
| 1777695348 | 11.67° C | 41% | 1026.8 hPa | - | - | - | - |
| 1777694451 | 11.11° C | 42% | 1026.5 hPa | - | - | - | - |
| 1777694448 | 11.11° C | 42% | 1026.5 hPa | - | - | - | - |
| 1777693596 | 11.11° C | 41% | 1026.4 hPa | - | - | - | - |
| 1777693551 | 11.11° C | 41% | 1026.4 hPa | - | - | - | - |
| 1777693548 | 11.11° C | 41% | 1026.4 hPa | - | - | - | - |
| 1777693287 | 11.11° C | 41% | 1027.9 hPa | - | - | - | - |
| 1777692650 | 11.11° C | 41% | 1027.9 hPa | - | - | - | - |
| 1777692647 | 11.11° C | 41% | 1027.9 hPa | - | - | - | - |
| 1777691986 | 11.11° C | 41% | 1027.3 hPa | - | - | - | - |
| 1777691750 | 11.11° C | 41% | 1027.3 hPa | - | - | - | - |
| 1777691747 | 11.11° C | 41% | 1027.3 hPa | - | - | - | - |
| 1777690850 | 11.67° C | 41% | 1027.3 hPa | - | - | - | - |
| 1777690847 | 11.67° C | 41% | 1027.3 hPa | - | - | - | - |
| 1777689949 | 11.67° C | 40% | 1027.4 hPa | - | - | - | - |
| 1777689946 | 11.67° C | 40% | 1027.4 hPa | - | - | - | - |
| 1777689095 | 12.22° C | 40% | 1027.2 hPa | - | - | - | - |
| 1777689049 | 12.22° C | 40% | 1027.2 hPa | - | - | - | - |
| 1777689046 | 12.22° C | 40% | 1027.2 hPa | - | - | - | - |
* Rain since midnight (hover to see other rain measurements)
** Current wind speed in m/s (hover to see current wind gust speed)